CAPE
0 0 0 0 0 0 0 0 0 0 0 0 0 0 0 0 0 0 0 0 0 0
0 0 0 0 0 0 0 0 0 0 0 0 0 0 0 0 0 0 0 0 0 0
0 0 0 0 0 0 0 0 0 0 0 0 0 0 0 0 0 0 0 0 0 0
0 0 0 0 0 0 0 0 0 0 0 0 0 0 0 0 0 4 6 1 0 1
1 0 0 0 0 0 0 0 0 0 0 0 3 0 0 0 0 0 0 0 1 2
0 0 2 0 0 0 0 0 0 0 0 0 0 0 0 0 0 0 0 0 0 2
0 0 0 0 0 1 0 0 1 0 0 0 0 0 0 0 0 0 0 0 0 0
0 0 0 0 2 3 0 0 0 0 0 0 0 0 0 0 0 0 0 0 0 0
0 1 0 0 0 0 0 0 1 0 4 3 1 1 0 1 1 1 0 1 0 0
0 0 0 0 0 0 0 0 0 0 0 0 1 0 1 0 0 0 2 6 1 5
0 0 0 0 0 0 0 0 0 0 0 0 0 1 0 0 1 4 3 0 0 0
0 0 0 0 0 0 0 0 0 0 0 0 1 0 0 0 0 0 0 0 0 0
0 0 0 0 0 0 0 0 0 0 0 0 0 0 0 0 0 0 0 0 0 0
0 0 0 0 0 0 0 0 0 0 0 0 0 0 0 0 0 0 0 0 0 0
CIN
0 0 0 0 0 0 0 0 0 0 0 0 0 0 0 0 0 0 0 0 0 0
0 0 0 0 0 0 0 0 0 0 0 0 0 0 0 0 0 0 0 0 0 0
0 0 0 0 0 0 0 0 0 0 0 0 0 0 0 0 0 0 0 0 0 0
0 0 0 0 0 0 0 0 0 0 0 0 0 0 0 0 -43 -147 -167 -181 -102 -167
-90 0 0 0 0 0 0 0 0 0 0 0 -165 -11 0 0 0 -8 0 -20 -177 -216
0 0 -103 0 0 0 0 0 0 0 0 0 0 0 0 0 0 0 0 0 0 -157
0 0 0 0 0 0 0 0 0 0 0 0 0 0 0 0 0 0 0 0 0 0
0 0 0 0 0 0 0 0 0 0 0 0 0 0 0 0 0 0 0 0 0 0
0 0 0 0 0 0 0 0 0 0 0 0 0 0 0 0 0 0 0 0 0 0
0 0 0 0 0 0 0 0 0 0 0 0 0 0 0 0 0 0 0 0 0 0
0 0 0 0 0 0 0 0 0 0 0 0 0 0 0 0 0 0 0 0 0 0
0 0 0 0 0 0 0 0 0 0 0 0 0 0 0 0 0 0 0 0 0 0
0 0 0 0 0 0 0 0 0 0 0 0 0 0 0 0 0 0 0 0 0 0
0 0 0 0 0 0 0 0 0 0 0 0 0 0 0 0 0 0 0 0 0 0
Wind_Speed
10 8 8 9 7 7 7 7 6 7 6 8 7 7 6 4 5 6 6 8 7 5
9 9 8 7 6 7 6 5 6 7 8 7 6 6 5 4 6 5 7 9 9 8
9 9 7 6 8 7 7 7 7 8 9 8 8 7 7 7 9 9 8 8 9 9
9 9 9 10 9 10 9 8 8 9 10 11 10 10 9 10 10 9 11 9 9 11
7 8 7 8 9 7 9 9 10 10 10 11 11 10 11 12 11 11 11 12 9 12
6 6 6 5 4 3 5 6 5 6 7 8 8 9 10 10 10 10 11 11 9 12
4 5 5 4 4 3 0 2 2 2 3 3 4 3 4 7 8 8 8 9 8 9
6 4 5 4 3 3 4 2 2 1 3 4 5 5 6 3 3 4 4 5 5 5
6 4 4 3 4 4 4 3 1 3 1 2 2 8 8 6 3 4 4 3 5 4
5 6 4 4 4 4 4 3 1 3 4 3 4 7 6 6 3 4 2 3 4 5
6 5 5 5 5 4 3 4 2 4 1 6 4 4 5 5 3 3 4 5 4 4
5 6 6 6 5 4 4 4 3 4 3 6 4 10 8 4 3 4 5 4 5 5
7 7 6 6 5 3 3 4 5 6 6 9 5 8 9 7 3 4 3 4 5 9
5 6 5 5 3 3 4 5 6 7 5 5 5 5 8 8 3 3 2 3 3 3
Wind_Direction
196 188 191 188 189 197 198 204 190 195 192 204 201 200 193 192 202 190 211 206 213 211
185 192 197 185 186 192 195 196 188 191 206 208 204 202 188 209 222 200 221 227 224 219
186 195 189 174 190 193 201 200 187 197 207 211 206 194 188 213 229 217 227 229 228 231
183 191 193 194 202 205 206 200 204 207 212 219 217 215 212 225 231 222 239 234 225 234
187 188 202 221 211 212 215 209 213 213 217 222 220 213 206 222 225 222 232 235 229 242
149 155 170 155 154 188 220 221 227 219 213 215 222 230 228 229 228 223 229 236 230 240
146 135 141 140 147 160 74 187 241 259 227 230 225 226 247 238 235 229 230 239 240 240
115 114 115 130 130 118 94 58 343 20 71 40 74 47 17 3 4 342 354 358 12 25
130 125 113 119 122 111 107 100 62 75 8 85 96 67 41 10 348 29 6 11 352 18
136 129 129 121 117 112 107 91 109 95 84 78 93 56 49 25 38 37 4 5 52 3
121 119 121 119 110 111 102 116 123 107 92 111 74 64 54 58 48 74 60 53 31 47
118 122 119 112 114 109 117 112 112 92 109 96 107 87 70 62 66 69 56 48 39 26
136 140 139 142 138 129 123 121 107 88 76 95 77 78 72 65 68 68 39 29 24 12
122 126 128 126 121 131 125 113 104 104 82 72 82 67 79 78 73 78 44 23 354 341